Find Starlink 34907

NORAD ID: 65213 Int'l Des: 2025-176 Owner: SPXS Country: US Constellation: starlink operational
LEOCIRCULAR

实时位置

正在加载3D地球...

关于 Starlink 34907

正在加载描述...

即将过境

Passes for default location (London). Set your location on the main map for personalized predictions.

高度历史

Loading altitude history...

两行轨道根数

1 65213U 25176R 26107.05388714 .00009144 00000-0 32035-3 0 9994
2 65213 53.1593 334.5642 0001128 107.5778 252.5346 15.30211723 38990
Epoch: Apr 17, 2026 • Age: 12 hours

当前状态

高度 475.8 km
速度 7.63 km/s
星下点 0.12°N, 110.8°E
发射日期 Aug 14, 2025
运行时间 0.6 years
类型 internet

技术详情

分类 Payload
质量 575.00 kg
干质量 530.00 kg
总质量 575.00 kg
长度 0.30 m
直径 4.10 m
跨度 29.00 m
形状 Box + pan
制造商 SPXS
平台类型 Starlink V2MO
阶段状态 In Orbit
所有者/国家 SPXS/US

Most Searched